Regional Weather Roundup
Issued by NWS

Home | Current Version | Previous Version | Text Only | Print | Product List | Glossary Off
Versions: 1 2 3 4 5 6 7 8 9 10 11 12 13 14 15 16 17 18 19 20 21 22 23 24 25 26 27 28 29 30 31 32 33 34 35 36 37 38 39 40 41 42 43 44 45 46 47 48 49 50

752
ASUS43 KLOT 200208
RWRIL

ILLINOIS REGIONAL WEATHER ROUNDUP
NATIONAL WEATHER SERVICE CHICAGO/ROMEOVILLE IL
900 PM CDT SAT AUG 19 2017

NOTE: "FAIR" INDICATES FEW OR NO CLOUDS BELOW 12,000 FEET WITH NO
SIGNIFICANT WEATHER AND/OR OBSTRUCTIONS TO VISIBILITY.

* THESE STATIONS ARE NOT UNDER NWS QUALITY CONTROL. THEY ALSO MAY NOT
  REPORT WEATHER SUCH AS PRECIPITATION OR FOG.

ILZ001-002-007-009-015-016-024-200300-
NORTHWEST ILLINOIS

CITY           SKY/WX    TMP DP  RH WIND       PRES   REMARKS
MOLINE         CLEAR     69  63  81 E5        29.94R
STERLING*      CLEAR     66  64  93 CALM      29.97R
SAVANNA*       CLEAR     68  62  82 CALM      29.95R
$$

ILZ003-004-008-010-011-017-018-200300-
NORTH CENTRAL ILLINOIS

CITY           SKY/WX    TMP DP  RH WIND       PRES   REMARKS
ROCKFORD       CLEAR     71  64  78 CALM      29.98R
FREEPORT*      CLEAR     66  64  93 CALM      29.98S
ROCHELLE*      CLEAR     66  64  91 SE3       29.98R
DE KALB*       CLEAR     69  63  81 SW3       29.99R
PERU*          CLEAR     69  60  71 CALM      29.97R
$$

ILZ005-006-012>014-019>023-200300-
NORTHEAST ILLINOIS

CITY           SKY/WX    TMP DP  RH WIND       PRES   REMARKS
CHICAGO-OHARE  CLEAR     73  53  49 SE6       29.96R
CHICAGO-MIDWAY CLEAR     76  55  48 SE6       29.96R
AURORA         CLEAR     67  64  90 CALM      29.97R
LANSING*       CLEAR     71  53  53 SE5       29.97S
JOLIET*        CLEAR     68  62  80 CALM      29.97R
WAUKEGAN       CLEAR     66  62  87 CALM      29.96R
DUPAGE AIRPORT CLEAR     69  64  84 CALM      29.96R
KANKAKEE*      CLEAR     70  63  78 CALM      29.98R
WHEELING       CLEAR     71  59  65 CALM      29.98R
MORRIS*        CLEAR     71  57  61 CALM      29.96R
ROMEOVILLE*    CLEAR     70  58  63 CALM      29.97R
NORTHERLY ISL    N/A     72  60  66 SE7         N/A
$$

LMZ740>746-200300-
SOUTHERN LAKE MICHIGAN

STATION/POSITION SKY/WX   TEMP    WIND        PRES    VSBY  WAVE
                          AIR SEA DIR/SP/G                  HT/PER
                          (F)     (DEG/KT/KT) (MB)    (MI)  (FT/S)
SOUTHERN BUOY              72 72  170/  8/  8 1014.5R         1
WILMETTE HARBOR            74 73  150/  8/ 10   N/A           1/ 2
HARRISON CRIB              74     130/  9/ 10   N/A
CALUMET HARBOR             75     100/  6/  8 1014.1R
BURNS HARBOR               75     110/  6/  7 1015.6R
MICHIGAN CITY              72      70/  3/  4   N/A
MICHIGAN CITY 6N           73 75  130/  6/  8   N/A           1
ST. JOSEPH                 73 79  150/  4/  6 1015.0          1/ 3
$$

ILZ025>027-034>036-040-047-049-050-058-095>099-200300-
WEST-CENTRAL ILLINOIS

CITY           SKY/WX    TMP DP  RH WIND       PRES   REMARKS
QUINCY         CLEAR     78  68  71 E7        29.93R HX  80
MACOMB*        CLEAR     68  66  94 E5        29.96R
JACKSONVILLE*  CLEAR     73  69  86 E5        29.94R
PITTSFIELD*    CLEAR     76  70  81 E3        29.95R
$$

ILZ028>032-037-038-041>044-048-051>054-059>061-200300-
CENTRAL ILLINOIS

CITY           SKY/WX    TMP DP  RH WIND       PRES   REMARKS
PONTIAC        CLEAR     66  65  97 CALM      29.98R
BLOOMINGTON    CLEAR     70  65  84 E6        29.99R
DECATUR        CLEAR     72  68  87 NE3       29.96R
PEORIA         CLEAR     74  63  68 CALM      29.95R
LACON*         CLEAR     68  64  86 CALM      29.95S
LINCOLN*       CLEAR     71  67  87 CALM      29.96R
SPRINGFIELD    CLEAR     76  70  82 NE5       29.95R
TAYLORVILLE    CLEAR     72  70  92 CALM      29.95R
$$

ILZ033-039-045-046-055>057-062-063-200300-
EAST-CENTRAL ILLINOIS

CITY           SKY/WX    TMP DP  RH WIND       PRES   REMARKS
CHAMPAIGN      CLEAR     70  63  78 NE3       29.97R
RANTOUL*       CLEAR     76  67  73 NE3       29.97R
MATTOON        CLEAR     75  72  90 N3        29.95R
PARIS*         PTCLDY    73  68  86 NE5       29.97R
$$

ILZ079-100>102-200300-
SOUTHWEST ILLINOIS

CITY           SKY/WX    TMP DP  RH WIND       PRES   REMARKS
ALTON          CLEAR     75  72  88 CALM      29.94R
BELLEVILLE     CLEAR     77  72  84 CALM      29.94R
CAHOKIA*       CLEAR     78  67  68 CALM      29.93R HX  80
SPARTA*        PTCLDY    76  72  85 CALM      29.95R
$$

ILZ064>066-069>071-074>076-080>082-084>086-088>090-092>094-200300-
SOUTH-CENTRAL ILLINOIS

CITY           SKY/WX    TMP DP  RH WIND       PRES   REMARKS
CARBONDALE     PTCLDY    75  75 100 CALM      29.94R
CAIRO*         CLEAR     80  74  82 S6        29.95R HX  84
EFFINGHAM*     CLEAR     73  71  91 CALM      29.97R
MARION         CLEAR     77  75  94 CALM      29.96R
MT. VERNON       N/A     73  72  96 CALM      29.95R
CENTRALIA*     CLEAR     74  71  93 CALM      29.94R
SALEM*         CLEAR     73  70  89 CALM      29.95R
METROPOLIS*    CLEAR     76  72  87 CALM      29.96R
$$

ILZ067-068-072-073-078-083-087-091-200300-
SOUTHEAST ILLINOIS

CITY           SKY/WX    TMP DP  RH WIND       PRES   REMARKS
LAWRENCEVILLE  MOCLDY    78  71  79 NW7       29.96R HX  80
FLORA*         PTCLDY    75  71  85 CALM      29.95R
FAIRFIELD*     CLEAR     74  73  97 CALM      29.94R
HARRISBURG*    CLEAR     74  71  93 CALM      29.95R
ROBINSON*      PTCLDY    69  69  98 CALM      29.95R
CARMI*         CLEAR     72  71  98 CALM      29.94R
$$

ABBREVIATIONS USED IN REMARKS
   TC - TEMPERATURE IN CELSIUS
  WCI - WIND CHILL INDEX
   HX - HEAT INDEX
  VSB - VISIBILITY
$$





USA.gov is the U.S. government's official web portal to all federal, state and local government web resources and services.